Regional Weather Roundup
Issued by NWS

Home | Current Version | Previous Version | Graphics & Text | Print | Product List | Glossary On
Versions: 1 2 3 4 5 6 7 8 9 10 11 12 13 14 15 16 17 18 19 20 21 22 23 24 25 26 27 28 29 30 31 32 33 34 35 36 37 38 39 40 41 42 43 44 45 46 47 48 49 50
000
ASUS43 KMPX 210610
RWRMN
WEATHER ROUNDUP FOR MINNESOTA
NATIONAL WEATHER SERVICE TWIN CITIES/CHANHASSEN MN
100 AM CDT TUE OCT 21 2014


NOTE: "FAIR" INDICATES FEW OR NO CLOUDS BELOW 12,000 FEET WITH NO
SIGNIFICANT WEATHER AND/OR OBSTRUCTIONS TO VISIBILITY. N/A MEANS
CURRENT SKY AND/OR WEATHER CONDITIONS ARE NOT AVAILABLE.

MNZ060>063-068>070-210700-
   Twin Cities Metro

CITY           SKY/WX    TMP DP  RH WIND       PRES   REMARKS
TWIN CITIES    CLEAR     42  38  85 CALM      30.10R
6HR MIN TEMP:  42; 6HR MAX TEMP:  55;

ST PAUL        CLEAR     41  37  86 CALM      30.11R
CRYSTAL        CLEAR     39  36  89 CALM      30.09R
BLAINE         CLEAR     37  37 100 CALM      30.10R
LAKEVILLE      CLEAR     36  34  93 CALM      30.09R
EDEN PRAIRIE   CLEAR     45  40  82 NE3       30.09R
6HR MIN TEMP:  44; 6HR MAX TEMP:  56;

SOUTH ST PAUL  CLEAR     43  38  81 CALM      30.10R
LAKE ELMO      FAIR      36  36 100 NE3       30.11R
$$
MNZ001>005-007-008-013>017-022>024-027-028-210700-
   Northwest Minnesota

CITY           SKY/WX    TMP DP  RH WIND       PRES   REMARKS
BEMIDJI        CLEAR     36  35  98 SE3       30.10S
HALLOCK        CLEAR     43  37  81 SE10      30.06S
ROSEAU         CLEAR     39  34  81 SE8       30.10S
WARROAD        CLEAR     37  34  87 SE7       30.12R
THIEF RVR FALL CLEAR     37  36  93 E9        30.08S
CROOKSTON      CLEAR     41  37  87 SE9       30.08R
FOSSTON        CLEAR     37  34  87 SE7       30.09S
DETROIT LAKES  CLEAR     43  37  81 SE10      30.10S
MOORHEAD       CLEAR     43  41  93 E7        30.07S
PARK RAPIDS    CLEAR     38  36  92 SE3       30.11R
MAHNOMEN       FAIR      42  38  87 SE12      30.08S
$$
MNZ006-009>011-018-025>026-210700-
   North Central Minnesota

CITY           SKY/WX    TMP DP  RH WIND       PRES   REMARKS
BAUDETTE       CLEAR     36  33  89 SE5       30.12R
FLAG ISLAND    CLEAR     43  37  81 SE8G17    30.11R
INTL FALLS     CLOUDY    42  34  73 E8        30.14R
6HR MIN TEMP:  42; 6HR MAX TEMP:  46;

WASKISH        CLEAR     28  28 100 CALM      30.12R
BIG FORK       MOCLDY    30  28  93 CALM      30.13R
LONGVILLE      CLEAR     30  30 100 CALM      30.12R
GRAND RAPIDS   CLOUDY    34  30  86 CALM      30.12S
CRANE LAKE     CLOUDY    39  34  81 CALM      30.17R
ORR            CLOUDY    41  32  70 CALM      30.12R
COOK           CLOUDY    43  36  75 CALM      30.14S
WALKER         FAIR      41  37  87 E3        30.11R
$$
MNZ012-019>021-037-210700-
   Northeast Minnesota

CITY           SKY/WX    TMP DP  RH WIND       PRES   REMARKS
DULUTH         CLOUDY    45  35  68 E7        30.12R
6HR MIN TEMP:  45; 6HR MAX TEMP:  47;

ELY            CLOUDY    39  34  81 CALM      30.15R
HIBBING        CLOUDY    44  34  67 E6        30.13R
EVELETH        CLOUDY    43  34  70 CALM      30.14R
DULUTH HARBOR  CLOUDY    48  41  76 NE18      30.14R
TWO HARBORS    CLOUDY    46  30  53 E14       30.13R
SILVER BAY     PTCLDY    45  36  70 NE10      30.14R
GRAND MARAIS     N/A     42  32  67 NE6       30.18R
G MARAIS ARPRT CLOUDY    34  28  80 N5        30.15R WCI  30
$$
MNZ029>031-032-039>041-046>048-054>057-064-210700-
   West Central Minnesota

CITY           SKY/WX    TMP DP  RH WIND       PRES   REMARKS
FERGUS FALLS   CLEAR     46  36  66 E9        30.09R
WHEATON        CLEAR     34  28  80 CALM      30.08S
MORRIS         CLEAR     39  36  87 E10       30.07S
ALEXANDRIA     CLEAR     43  38  82 E9        30.10R
ELBOW LAKE     FAIR      45  38  78 E9        30.07S
WADENA         CLEAR     37  36  93 E5        30.10S
GLENWOOD       CLEAR     39  36  87 E7        30.10S
APPLETON       PTCLDY    37  36  93 CALM      30.07R
BENSON         PTCLDY    43  37  81 SE8       30.08S
ORTONVILLE     PTCLDY    45  37  76 SE5       30.06S
MADISON        PTCLDY    41  36  81 CALM      30.07S
WILLMAR        FAIR      45  37  76 E7        30.11R
$$
MNZ033>034-036-042>043-049>051-058-059-210700-
   Central Minnesota

CITY           SKY/WX    TMP DP  RH WIND       PRES   REMARKS
ST CLOUD       CLEAR     40  36  86 CALM      30.11R
6HR MIN TEMP:  40; 6HR MAX TEMP:  56;

SAUK CENTRE    FAIR      40  37  88 E3        30.11R
PAYNESVILLE    CLEAR     39  35  86 CALM      30.11R
AITKIN         PTCLDY    30  27  86 CALM      30.11R
PINE RIVER     CLEAR     30  30 100 CALM      30.15R
BRAINERD       CLEAR     34  34 100 CALM      30.12S FOG
STAPLES        CLEAR     37  36  93 CALM      30.11R
LONG PRAIRIE   FAIR      37  36  93 E3        30.11R
LITTLE FALLS   CLEAR     36  34  93 CALM      30.11S
LITCHFIELD     CLEAR     45  41  87 E3        30.11R
BUFFALO        CLEAR     39  35  84 CALM      30.11S
MAPLE LAKE     CLEAR     40  38  94 CALM      30.11R
$$
MNZ037-044-045-052-053-210700-
   East Central Minnesota

CITY           SKY/WX    TMP DP  RH WIND       PRES   REMARKS
PRINCETON      CLEAR     37  36  93 CALM      30.11S
MORA           CLEAR     36  32  87 CALM      30.13S
CAMBRIDGE      CLEAR     37  30  75 CALM      30.09S
RUSH CITY      PTCLDY    35  32  92 CALM      30.11S
MOOSE LAKE     CLOUDY    39  36  87 CALM      30.11R
HINCKLEY       FAIR      32  32 100 CALM      30.12R
CLOQUET        CLOUDY    45  36  70 NE3       30.12R
MCGREGOR       CLEAR     32  30  93 CALM      30.13R
$$
MNZ071>073-080-081-089-090-097-098-210700-
   Southwest Minnesota

CITY           SKY/WX    TMP DP  RH WIND       PRES   REMARKS
MONTEVIDEO     PTCLDY    41  37  87 SE5       30.08S
GRANITE FALLS  CLEAR     36  31  83 CALM      30.09S
CANBY          PTCLDY    38  35  87 CALM      30.07S
MARSHALL       CLEAR     39  32  75 CALM      30.06S
REDWOOD FALLS  CLEAR     47  37  68 E5        30.08R
OLIVIA         CLEAR     43  34  70 E6        30.08S
PIPESTONE      CLEAR     46  36  66 CALM      30.07S
WINDOM         CLEAR     39  36  87 CALM      30.08S
WORTHINGTON    CLEAR     39  34  81 CALM      30.09R
JACKSON        CLEAR     39  36  87 CALM      30.08S
TRACY          CLEAR     43  36  77 CALM      30.08S
SLAYTON        CLEAR     38  34  82 CALM      30.08F
$$
MNZ065>067-074>077-082>085-091>093-210700-
   South Central Minnesota

CITY           SKY/WX    TMP DP  RH WIND       PRES   REMARKS
MANKATO        CLEAR     46  36  66 E7        30.08R
NEW ULM        CLEAR     46  39  76 E3        30.09R
ST JAMES       CLEAR     39  34  81 CALM      30.09R
FAIRMONT       CLEAR     43  28  56 CALM      30.07S
GLENCOE        CLEAR     39  37  90 CALM      30.09R
FARIBAULT      CLEAR     36  34  93 CALM      30.09R
OWATONNA       CLEAR     39  36  87 CALM      30.08R
WASECA         CLEAR     37  32  81 CALM      30.10R
ALBERT LEA     CLEAR     43  39  87 CALM      30.08R
$$
MNZ078>079-086>088-094>096-210700-
   Southeast Minnesota

CITY           SKY/WX    TMP DP  RH WIND       PRES   REMARKS
ROCHESTER      CLEAR     43  38  82 CALM      30.09R
6HR MIN TEMP:  42; 6HR MAX TEMP:  54;

RED WING       CLEAR     37  36  93 CALM      30.09R
STANTON        CLEAR     37  35  90 CALM      30.08R
DODGE CENTER   CLEAR     39  37  93 CALM      30.08R
WINONA         CLEAR     41  39  93 NW3       30.08R
AUSTIN         CLEAR     39  37  93 CALM      30.08R
PRESTON        CLEAR     43  38  81 CALM      30.07S
$$
ABBREVIATIONS USED IN REMARKS
   TC - TEMPERATURES IN CELSIUS
  WCI - WIND CHILL INDEX
   HX - HEAT INDEX
  VSB - VISIBILITY
$$



USA.gov is the U.S. government's official web portal to all federal, state and local government web resources and services.